DW2047 Weather Reports


time (UTC)temp
F
wind
direction
speed
knots
gust
knots
rain 1hr
in
rain 24hr
in
rain mn
in
humidity
%
barometer
mb
20260906165515 88 136 0.9 7.0 0.00 0.00 0.00 65 1014.5
20260906165055 88 149 2.6 7.0 0.00 0.00 0.00 66 1014.5
20260906164529 88 140 2.6 7.0 0.00 0.00 0.00 67 1014.6
20260906164103 87 147 1.7 4.3 0.00 0.00 0.00 68 1014.6
20260906163538 87 159 1.7 4.3 0.00 0.00 0.00 68 1014.7
20260906163004 86 208 0.0 2.6 0.00 0.00 0.00 69 1014.7
20260906162545 86 208 0.0 5.2 0.00 0.00 0.00 69 1014.7
20260906162021 86 208 0.9 5.2 0.00 0.00 0.00 70 1014.7
20260906161552 86 147 0.0 4.3 0.00 0.00 0.00 71 1014.7
20260906161028 85 147 1.7 4.3 0.00 0.00 0.00 69 1014.7
20260906160505 85 176 0.9 5.2 0.00 0.00 0.00 71 1014.6
20260906160036 85 150 0.9 7.0 0.00 0.00 0.00 71 1014.6
20260906155517 85 147 1.7 7.0 0.00 0.00 0.00 70 1014.6
20260906155054 86 155 2.6 7.0 0.00 0.00 0.00 70 1014.5
20260906154522 86 143 2.6 7.0 0.00 0.00 0.00 71 1014.4
20260906154101 86 146 1.7 6.1 0.00 0.00 0.00 70 1014.5
20260906153541 86 132 1.7 6.1 0.00 0.00 0.00 71 1014.4
20260906153008 86 140 1.7 6.1 0.00 0.00 0.00 71 1014.3
20260906152546 85 146 0.9 5.2 0.00 0.00 0.00 73 1014.2
20260906152024 85 150 0.9 5.2 0.00 0.00 0.00 74 1014.2
20260906151554 84 150 2.6 5.2 0.00 0.00 0.00 73 1014.1
20260906151030 84 150 0.9 4.3 0.00 0.00 0.00 74 1014.1
20260906150504 84 150 0.0 4.3 0.00 0.00 0.00 76 1014.0
20260906150035 83 150 0.0 4.3 0.00 0.00 0.00 75 1014.1
20260906145512 83 150 0.0 2.6 0.00 0.00 0.00 76 1014.0
20260906145054 83 150 0.0 1.7 0.00 0.00 0.00 77 1014.0
20260906144511 83 150 0.9 4.3 0.00 0.00 0.00 76 1014.0
20260906144052 83 150 0.9 4.3 0.00 0.00 0.00 76 1014.0
20260906143529 83 150 1.7 5.2 0.00 0.00 0.00 77 1013.9
20260906143100 82 151 0.0 5.2 0.00 0.00 0.00 78 1014.0
20260906142537 82 151 0.0 2.6 0.00 0.00 0.00 79 1014.0
20260906142016 82 151 0.0 2.6 0.00 0.00 0.00 79 1014.0
20260906141548 81 151 0.0 4.3 0.00 0.00 0.00 79 1014.0
20260906141025 81 151 0.9 4.3 0.00 0.00 0.00 80 1014.0
20260906140501 81 144 1.7 3.5 0.00 0.00 0.00 81 1013.9
20260906140028 81 144 0.9 3.5 0.00 0.00 0.00 82 1013.9
20260906135502 80 144 0.0 3.5 0.00 0.00 0.00 83 1013.8
20260906135042 80 144 0.0 1.7 0.00 0.00 0.00 83 1013.8
20260906134510 80 144 0.0 1.7 0.00 0.00 0.00 83 1013.8
20260906134050 80 144 0.0 1.7 0.00 0.00 0.00 83 1013.7
20260906133528 79 144 0.0 0.9 0.00 0.00 0.00 83 1013.7
20260906133059 79 144 0.0 0.0 0.00 0.00 0.00 84 1013.7
20260906132535 79 144 0.0 0.0 0.00 0.00 0.00 84 1013.6
20260906132012 79 144 0.0 0.0 0.00 0.00 0.00 85 1013.5
20260906131544 78 144 0.0 0.0 0.00 0.00 0.00 85 1013.4
20260906131020 78 144 0.0 0.0 0.00 0.00 0.00 86 1013.3
20260906130601 78 144 0.0 0.0 0.00 0.00 0.00 86 1013.2
20260906130029 77 144 0.0 0.0 0.00 0.00 0.00 87 1013.2
20260906125506 77 144 0.0 0.0 0.00 0.00 0.00 87 1013.2
20260906125046 77 144 0.0 0.0 0.00 0.00 0.00 88 1013.1
20260906124514 77 144 0.0 0.0 0.00 0.00 0.00 88 1013.0
20260906124056 77 144 0.0 0.0 0.00 0.00 0.00 88 1012.9
20260906123532 76 144 0.0 0.0 0.00 0.00 0.00 88 1012.9
20260906123105 76 144 0.0 0.0 0.00 0.00 0.00 88 1012.9
20260906122541 76 144 0.0 0.0 0.00 0.00 0.00 88 1012.7
20260906122019 76 144 0.0 0.0 0.00 0.00 0.00 88 1012.7
20260906121602 76 144 0.0 0.0 0.00 0.00 0.00 87 1012.6
20260906121026 76 144 0.0 0.0 0.00 0.00 0.00 87 1012.5
20260906120505 76 144 0.0 0.0 0.00 0.00 0.00 87 1012.3
20260906120035 76 144 0.0 0.0 0.00 0.00 0.00 87 1012.3
20260906115512 76 144 0.0 0.0 0.00 0.00 0.00 87 1012.2
20260906115053 76 144 0.0 0.0 0.00 0.00 0.00 86 1012.1
20260906114522 77 144 0.0 0.0 0.00 0.00 0.00 86 1012.0
20260906114102 77 144 0.0 0.0 0.00 0.00 0.00 86 1012.0
20260906113538 77 144 0.0 0.0 0.00 0.00 0.00 85 1012.0
20260906113006 77 144 0.0 0.0 0.00 0.00 0.00 85 1012.0
20260906112547 77 144 0.0 0.0 0.00 0.00 0.00 85 1012.0
20260906112024 77 144 0.0 0.0 0.00 0.00 0.00 84 1012.0
20260906111556 78 144 0.0 0.0 0.00 0.00 0.00 84 1012.0
20260906111033 78 144 0.0 0.0 0.00 0.00 0.00 83 1011.9
20260906110510 78 144 0.0 0.0 0.00 0.00 0.00 83 1011.8
20260906110042 78 144 0.0 0.0 0.00 0.00 0.00 83 1011.8
20260906105518 78 144 0.0 0.0 0.00 0.00 0.00 82 1011.8
20260906105059 79 144 0.0 0.0 0.00 0.00 0.00 82 1011.8
20260906104528 79 144 0.0 0.0 0.00 0.00 0.00 81 1011.8
20260906104005 79 144 0.0 0.0 0.00 0.00 0.00 81 1011.7
20260906103547 79 144 0.0 0.0 0.00 0.00 0.00 81 1011.7
20260906103035 79 144 0.0 0.0 0.00 0.00 0.00 81 1011.7
20260906102555 79 144 0.0 0.0 0.00 0.00 0.00 80 1011.7
20260906102032 80 144 0.0 0.0 0.00 0.00 0.00 80 1011.7
20260906101502 80 144 0.0 0.0 0.00 0.00 0.00 80 1011.5
20260906101042 80 144 0.0 0.0 0.00 0.00 0.00 79 1011.5
20260906100519 80 144 0.0 0.0 0.00 0.00 0.00 79 1011.5
20260906100052 80 144 0.0 0.0 0.00 0.00 0.00 78 1011.5
20260906095529 80 144 0.0 0.0 0.00 0.00 0.00 78 1011.6
20260906095006 80 144 0.0 0.0 0.00 0.00 0.00 78 1011.6
20260906094539 81 144 0.0 0.0 0.00 0.00 0.00 78 1011.6
20260906094015 81 144 0.0 0.0 0.00 0.00 0.00 77 1011.5
20260906093558 81 144 0.0 0.0 0.00 0.00 0.00 77 1011.4
20260906093025 81 144 0.0 0.0 0.00 0.00 0.00 77 1011.4
20260906092502 81 144 0.0 0.0 0.00 0.00 0.00 76 1011.4
20260906092043 81 144 0.0 1.7 0.00 0.00 0.00 77 1011.5
20260906091511 81 144 0.0 2.6 0.00 0.00 0.00 77 1011.4
20260906091053 81 144 0.0 2.6 0.00 0.00 0.00 76 1011.4
20260906090530 82 144 0.9 6.1 0.00 0.00 0.00 76 1011.4
20260906090103 82 144 1.7 6.1 0.00 0.00 0.00 76 1011.4
20260906085540 82 144 0.9 2.6 0.00 0.00 0.00 76 1011.5
20260906085015 82 144 0.9 2.6 0.00 0.00 0.00 76 1011.5
20260906084549 82 144 0.9 2.6 0.00 0.00 0.00 76 1011.4
20260906084026 82 144 0.9 3.5 0.00 0.00 0.00 76 1011.5
20260906083503 82 144 0.9 2.6 0.00 0.00 0.00 75 1011.4
20260906083036 82 144 0.9 3.5 0.00 0.00 0.00 75 1011.5
20260906082516 82 144 0.9 3.5 0.00 0.00 0.00 75 1011.5
20260906082054 82 144 0.0 2.6 0.00 0.00 0.00 75 1011.4
20260906081525 83 144 0.0 4.3 0.00 0.00 0.00 75 1011.5
20260906081107 83 144 1.7 4.3 0.00 0.00 0.00 75 1011.5
20260906080541 83 144 1.7 4.3 0.00 0.00 0.00 75 1011.6
20260906080010 83 144 1.7 4.3 0.00 0.00 0.00 75 1011.6
20260906075552 83 146 1.7 4.3 0.00 0.00 0.00 75 1011.6
20260906075027 83 163 0.9 5.2 0.00 0.00 0.00 75 1011.7
20260906074601 83 148 0.9 5.2 0.00 0.00 0.00 75 1011.8
20260906074037 83 152 0.0 2.6 0.00 0.00 0.00 75 1011.8
20260906073518 83 152 0.9 4.3 0.00 0.00 0.00 75 1011.9
20260906073048 83 152 0.9 4.3 0.00 0.00 0.00 76 1011.9
20260906072526 83 152 0.9 4.3 0.00 0.00 0.00 76 1012.0
20260906072105 83 152 0.0 2.6 0.00 0.00 0.00 76 1012.1
20260906071532 82 152 0.0 4.3 0.00 0.00 0.00 76 1012.1
20260906071009 82 152 0.0 2.6 0.00 0.00 0.00 76 1012.1
20260906070552 82 152 0.0 5.2 0.00 0.00 0.00 76 1012.2
20260906070020 82 153 0.9 4.3 0.00 0.00 0.00 76 1012.3
20260906065601 82 153 0.0 2.6 0.00 0.00 0.00 76 1012.3
20260906065038 82 153 0.0 2.6 0.00 0.00 0.00 76 1012.3
20260906064507 82 153 0.0 0.9 0.00 0.00 0.00 76 1012.4
20260906064045 82 153 0.0 0.9 0.00 0.00 0.00 76 1012.4
20260906063522 82 153 0.0 0.0 0.00 0.00 0.00 76 1012.5
20260906063057 82 153 0.0 4.3 0.00 0.00 0.00 76 1012.5
20260906062533 82 153 0.9 4.3 0.00 0.00 0.00 76 1012.5
20260906062012 82 153 0.0 1.7 0.00 0.00 0.00 76 1012.4
20260906061547 82 153 0.0 4.3 0.00 0.00 0.00 76 1012.4
20260906061022 82 153 0.0 4.3 0.00 0.00 0.00 76 1012.4
20260906060604 82 153 0.9 2.6 0.00 0.00 0.00 76 1012.4
20260906060034 82 153 0.9 2.6 0.00 0.00 0.00 76 1012.4
20260906055513 82 153 0.9 2.6 0.00 0.00 0.00 75 1012.6
20260906055052 83 153 0.9 2.6 0.00 0.00 0.00 75 1012.7
20260906054533 83 153 0.0 2.6 0.00 0.00 0.00 75 1012.7
20260906054104 83 153 0.0 4.3 0.00 0.00 0.00 75 1012.5
20260906053542 83 153 1.7 4.3 0.00 0.00 0.00 75 1012.5
20260906053012 83 153 0.9 4.3 0.00 0.00 0.00 74 1012.5
20260906052556 83 153 0.0 4.3 0.00 0.00 0.00 74 1012.5
20260906052030 83 153 1.7 3.5 0.00 0.00 0.00 74 1012.6
20260906051609 83 153 0.9 4.3 0.00 0.00 0.00 74 1012.6
20260906051041 83 153 1.7 5.2 0.00 0.00 0.00 74 1012.7
20260906050521 83 153 2.6 5.2 0.00 0.00 0.00 74 1012.7
20260906050052 83 144 1.7 4.3 0.00 0.00 0.00 74 1012.7
20260906045531 83 178 0.9 5.2 0.00 0.00 0.00 73 1012.9
20260906045005 83 178 1.7 5.2 0.00 0.00 0.00 73 1013.0
20260906044543 83 148 1.7 5.2 0.00 0.00 0.00 72 1012.9
20260906044017 83 155 1.7 5.2 0.00 0.00 0.00 72 1012.8
20260906043602 83 148 0.9 5.2 0.00 0.00 0.00 72 1012.7
20260906043029 83 142 1.7 4.3 0.00 0.00 0.00 72 1012.7
20260906042508 83 143 2.6 3.5 0.00 0.00 0.00 71 1012.6
20260906042047 83 143 0.9 3.5 0.00 0.00 0.00 70 1012.6
20260906041517 84 143 0.9 3.5 0.00 0.00 0.00 70 1012.6
20260906041058 84 143 0.9 3.5 0.00 0.00 0.00 69 1012.6
20260906040535 84 143 0.9 3.5 0.00 0.00 0.00 69 1012.5
20260906040006 84 143 1.7 4.3 0.00 0.00 0.00 68 1012.5
20260906035546 84 143 0.9 8.7 0.00 0.00 0.00 68 1012.5
20260906035024 85 129 3.5 8.7 0.00 0.00 0.00 68 1012.5
20260906034605 85 139 0.9 7.0 0.00 0.00 0.00 67 1012.5
20260906034034 85 140 1.7 7.0 0.00 0.00 0.00 67 1012.5
20260906033511 85 119 2.6 6.1 0.00 0.00 0.00 66 1012.5
20260906033048 85 118 0.9 6.1 0.00 0.00 0.00 66 1012.5
20260906032526 85 112 0.9 6.1 0.00 0.00 0.00 66 1012.6
20260906032105 85 133 1.7 4.3 0.00 0.00 0.00 65 1012.5
20260906031535 86 93 0.9 4.3 0.00 0.00 0.00 65 1012.6
20260906031015 86 134 1.7 6.1 0.00 0.00 0.00 65 1012.5
20260906030555 86 138 1.7 6.1 0.00 0.00 0.00 63 1012.4
20260906030028 86 126 2.6 7.0 0.00 0.00 0.00 63 1012.3
20260906025506 87 144 1.7 6.1 0.00 0.00 0.00 62 1012.1
20260906025049 87 71 1.7 4.3 0.00 0.00 0.00 61 1012.0
20260906024520 87 100 1.7 6.1 0.00 0.00 0.00 60 1012.0
20260906024104 87 110 1.7 6.1 0.00 0.00 0.00 60 1011.9
20260906023542 87 90 1.7 6.1 0.00 0.00 0.00 59 1011.8
20260906023015 87 105 0.9 6.1 0.00 0.00 0.00 58 1011.7
20260906022556 87 80 0.9 6.1 0.00 0.00 0.00 57 1011.5
20260906022037 88 124 1.7 7.8 0.00 0.00 0.00 57 1011.3
20260906021512 88 88 1.7 7.8 0.00 0.00 0.00 57 1011.3
20260906021049 88 86 0.0 5.2 0.00 0.00 0.00 56 1011.3
20260906020528 89 77 0.9 6.1 0.00 0.00 0.00 56 1011.1
20260906020103 89 92 0.0 7.8 0.00 0.00 0.00 56 1011.0
20260906015541 89 118 1.7 7.8 0.00 0.00 0.00 55 1010.9
20260906015021 89 136 2.6 7.8 0.00 0.00 0.00 55 1010.7
20260906014605 89 119 1.7 7.0 0.00 0.00 0.00 55 1010.7
20260906014034 89 134 2.6 7.8 0.00 0.00 0.00 55 1010.7
20260906013513 90 126 1.7 7.8 0.00 0.00 0.00 54 1010.7
20260906013053 90 99 2.6 8.7 0.00 0.00 0.00 54 1010.6
20260906012528 90 78 2.6 8.7 0.00 0.00 0.00 53 1010.6
20260906012006 91 130 2.6 8.7 0.00 0.00 0.00 53 1010.5
20260906011543 91 123 2.6 7.8 0.00 0.00 0.00 53 1010.4
20260906011020 91 94 2.6 7.0 0.00 0.00 0.00 53 1010.4
20260906010603 92 130 2.6 7.8 0.00 0.00 0.00 52 1010.4
20260906010037 92 137 2.6 7.8 0.00 0.00 0.00 52 1010.4
20260906005515 92 61 3.5 7.8 0.00 0.00 0.00 51 1010.4
20260906005102 92 140 1.7 7.8 0.00 0.00 0.00 51 1010.5
20260906004530 93 107 1.7 5.2 0.00 0.00 0.00 50 1010.4
20260906004009 93 95 1.7 8.7 0.00 0.00 0.00 50 1010.4
20260906003551 94 70 3.5 9.6 0.00 0.00 0.00 50 1010.4
20260906003024 94 87 1.7 7.8 0.00 0.00 0.00 49 1010.4
20260906002502 94 121 3.5 7.8 0.00 0.00 0.00 48 1010.3
20260906002043 95 121 3.5 7.8 0.00 0.00 0.00 47 1010.3
20260906001515 96 90 3.5 7.8 0.00 0.00 0.00 46 1010.3
20260906001056 96 109 3.5 7.8 0.00 0.00 0.00 46 1010.2
20260906000532 96 71 0.9 7.8 0.00 0.00 0.00 47 1010.2
20260906000004 96 96 2.6 8.7 0.00 0.00 0.00 46 1010.2
20260905235544 96 71 1.7 11.3 0.00 0.00 0.00 46 1010.2
20260905235021 97 57 4.3 11.3 0.00 0.00 0.00 45 1010.1
20260905234557 97 88 3.5 10.4 0.00 0.00 0.00 45 1010.0
20260905234034 97 74 2.6 9.6 0.00 0.00 0.00 42 1010.0
20260905233510 98 125 3.5 7.8 0.00 0.00 0.00 39 1009.9
20260905233048 98 105 0.9 7.0 0.00 0.00 0.00 40 1009.9
20260905232526 98 142 1.7 6.1 0.00 0.00 0.00 39 1010.0
20260905232003 98 138 2.6 6.1 0.00 0.00 0.00 40 1010.0
20260905231540 98 139 1.7 7.0 0.00 0.00 0.00 39 1009.9
20260905231016 97 149 2.6 7.0 0.00 0.00 0.00 40 1009.9
20260905230557 97 148 0.9 6.1 0.00 0.00 0.00 40 1009.9
20260905230030 98 82 1.7 7.0 0.00 0.00 0.00 39 1009.9
20260905225506 99 151 2.6 7.0 0.00 0.00 0.00 38 1009.9
20260905225047 99 150 1.7 8.7 0.00 0.00 0.00 38 1010.0
20260905224527 99 64 0.9 8.7 0.00 0.00 0.00 40 1010.0
20260905224104 99 107 2.6 8.7 0.00 0.00 0.00 39 1009.9
20260905223536 99 111 1.7 7.8 0.00 0.00 0.00 39 1009.9
20260905223009 99 136 2.6 7.8 0.00 0.00 0.00 39 1010.0
20260905222551 100 154 1.7 6.1 0.00 0.00 0.00 38 1010.0
20260905222026 99 207 0.0 6.1 0.00 0.00 0.00 39 1010.0
20260905221605 99 123 0.9 7.8 0.00 0.00 0.00 39 1010.0
20260905221041 99 148 2.6 7.8 0.00 0.00 0.00 38 1010.1
20260905220517 98 112 1.7 7.0 0.00 0.00 0.00 38 1010.1
20260905220055 99 138 2.6 7.8 0.00 0.00 0.00 39 1010.1
20260905215531 99 159 1.7 7.8 0.00 0.00 0.00 38 1010.1
20260905215007 99 121 0.9 7.0 0.00 0.00 0.00 40 1010.1
20260905214544 99 134 0.9 3.5 0.00 0.00 0.00 38 1010.2
20260905214027 99 136 0.0 6.1 0.00 0.00 0.00 39 1010.2
20260905213602 99 136 2.6 6.1 0.00 0.00 0.00 38 1010.3
20260905213035 99 153 0.0 7.0 0.00 0.00 0.00 39 1010.3
20260905212512 99 117 1.7 5.2 0.00 0.00 0.00 39 1010.3
20260905212052 99 117 0.9 5.2 0.00 0.00 0.00 39 1010.5
20260905211525 100 104 0.9 7.0 0.00 0.00 0.00 38 1010.5
20260905211002 100 79 0.9 5.2 0.00 0.00 0.00 40 1010.7
20260905210544 99 87 0.9 5.2 0.00 0.00 0.00 42 1010.7
20260905210016 99 122 0.0 4.3 0.00 0.00 0.00 40 1010.7
20260905205557 98 122 0.9 7.0 0.00 0.00 0.00 40 1010.8
20260905205034 98 127 0.9 7.8 0.00 0.00 0.00 40 1010.9
20260905204509 97 141 3.5 7.8 0.00 0.00 0.00 41 1011.0
20260905204047 97 261 1.7 8.7 0.00 0.00 0.00 40 1011.1
20260905203524 98 74 0.9 4.3 0.00 0.00 0.00 42 1011.1
20260905203106 97 70 1.7 7.0 0.00 0.00 0.00 45 1011.1
20260905202538 98 153 0.9 7.0 0.00 0.00 0.00 41 1011.2
20260905202015 98 75 2.6 7.0 0.00 0.00 0.00 43 1011.2
20260905201553 97 67 0.0 4.3 0.00 0.00 0.00 44 1011.2
20260905201028 97 144 0.9 7.0 0.00 0.00 0.00 42 1011.3
20260905200506 97 194 0.0 7.0 0.00 0.00 0.00 43 1011.5
20260905200048 97 74 1.7 7.8 0.00 0.00 0.00 42 1011.6
20260905195520 97 125 2.6 10.4 0.00 0.00 0.00 43 1011.7
20260905195101 97 176 1.7 10.4 0.00 0.00 0.00 41 1011.8
20260905194540 98 132 3.5 7.8 0.00 0.00 0.00 40 1011.8
20260905194014 97 261 1.7 6.1 0.00 0.00 0.00 41 1011.9
20260905193553 97 187 0.9 4.3 0.00 0.00 0.00 43 1012.0
20260905193030 96 196 0.9 8.7 0.00 0.00 0.00 44 1012.1
20260905192506 97 96 4.3 8.7 0.00 0.00 0.00 44 1012.2
20260905192047 96 170 0.9 7.0 0.00 0.00 0.00 46 1012.2
20260905191526 96 167 1.7 7.0 0.00 0.00 0.00 46 1012.3
20260905191106 95 265 1.7 3.5 0.00 0.00 0.00 46 1012.4
20260905190539 95 209 0.0 7.8 0.00 0.00 0.00 47 1012.5
20260905190014 95 133 3.5 7.8 0.00 0.00 0.00 45 1012.7
20260905185558 95 178 4.3 8.7 0.00 0.00 0.00 45 1012.7
20260905185030 95 252 0.9 7.8 0.00 0.00 0.00 48 1012.9
20260905184516 95 130 2.6 9.6 0.00 0.00 0.00 48 1013.0
20260905184046 95 136 3.5 9.6 0.00 0.00 0.00 49 1013.1
20260905183525 94 88 2.6 7.0 0.00 0.00 0.00 49 1013.1
20260905183118 94 32 2.6 5.2 0.00 0.00 0.00 50 1013.1
20260905182539 94 211 0.9 3.5 0.00 0.00 0.00 47 1013.1
20260905182015 94 143 0.9 7.0 0.00 0.00 0.00 48 1013.3
20260905181554 94 188 1.7 7.0 0.00 0.00 0.00 50 1013.3
20260905181031 93 140 1.7 4.3 0.00 0.00 0.00 51 1013.5
20260905180508 93 119 1.7 9.6 0.00 0.00 0.00 53 1013.5
20260905180047 93 155 4.3 9.6 0.00 0.00 0.00 50 1013.7
20260905175523 93 157 3.5 9.6 0.00 0.00 0.00 48 1013.8
20260905175001 92 132 1.7 8.7 0.00 0.00 0.00 51 1013.8
20260905174541 92 167 3.5 8.7 0.00 0.00 0.00 50 1014.0
20260905174016 92 146 1.7 8.7 0.00 0.00 0.00 50 1014.0
20260905173557 92 131 4.3 7.8 0.00 0.00 0.00 51 1014.0
20260905173031 92 217 0.9 6.1 0.00 0.00 0.00 54 1014.0
20260905172508 92 162 0.9 8.7 0.00 0.00 0.00 56 1014.1
20260905172050 91 186 3.5 8.7 0.00 0.00 0.00 56 1014.2
20260905171527 91 228 0.0 7.0 0.00 0.00 0.00 55 1014.2
20260905171106 91 171 1.7 7.0 0.00 0.00 0.00 56 1014.3
20260905170542 91 136 2.6 6.1 0.00 0.00 0.00 58 1014.3
20260905170017 90 145 3.5 8.7 0.00 0.00 0.00 58 1014.4
20260905165602 90 161 4.3 8.7 0.00 0.00 0.00 57 1014.5